N664NG KUUU-K6B6

Flight info

Callsign N664NG
Flight time 0h 19m
Altitude 12000
Route PUT
Aircraft PC12/L-VGD/A

Departure

Time 2026-05-06 12:53
Airport Newport State Airport (KUUU)

Arrival

Time 2026-05-06 13:13
Airport Minute Man Air Field (K6B6)
Time Latitude Longitude Altitude Speed Heading
2026-05-06 12:43 41.53187 -71.28239 165 ft 0 kts 280°
2026-05-06 12:51 41.53196 -71.28249 165 ft 6 kts 352°
2026-05-06 12:51 41.53246 -71.28208 168 ft 10 kts 56°
2026-05-06 12:51 41.53296 -71.28118 172 ft 14 kts 53°
2026-05-06 12:52 41.53386 -71.28037 174 ft 10 kts 24°
2026-05-06 12:52 41.53449 -71.28000 177 ft 12 kts 25°
2026-05-06 12:52 41.53519 -71.27959 178 ft 8 kts 33°
2026-05-06 12:52 41.53515 -71.27885 180 ft 5 kts 116°
2026-05-06 12:53 41.53468 -71.27889 180 ft 14 kts 204°
2026-05-06 12:53 41.53133 -71.28088 240 ft 78 kts 208°
2026-05-06 12:53 41.52679 -71.28407 717 ft 76 kts 213°
2026-05-06 12:53 41.52413 -71.29095 1084 ft 103 kts 253°
2026-05-06 12:54 41.52638 -71.30090 1529 ft 134 kts 291°
2026-05-06 12:54 41.53341 -71.30941 2183 ft 135 kts 300°
2026-05-06 12:54 41.53998 -71.31789 2727 ft 134 kts 296°
2026-05-06 12:54 41.54656 -71.32661 3279 ft 134 kts 297°
2026-05-06 12:55 41.55297 -71.33499 3808 ft 134 kts 297°
2026-05-06 12:55 41.55964 -71.34360 4304 ft 137 kts 298°
2026-05-06 12:55 41.56654 -71.35239 4811 ft 138 kts 299°
2026-05-06 12:55 41.57357 -71.36127 5286 ft 141 kts 300°
2026-05-06 12:56 41.58067 -71.37019 5772 ft 142 kts 300°
2026-05-06 12:56 41.58786 -71.37911 6265 ft 144 kts 304°
2026-05-06 12:56 41.59765 -71.38476 6681 ft 166 kts 335°
2026-05-06 12:56 41.60928 -71.38716 7121 ft 172 kts 341°
2026-05-06 12:57 41.62123 -71.38872 7562 ft 174 kts 343°
2026-05-06 12:57 41.63326 -71.39020 7940 ft 179 kts 342°
2026-05-06 12:57 41.64664 -71.39217 8000 ft 204 kts 342°
2026-05-06 12:57 41.66135 -71.39449 7999 ft 224 kts 345°
2026-05-06 12:58 41.67716 -71.39684 7996 ft 233 kts 345°
2026-05-06 12:58 41.69363 -71.39925 7997 ft 239 kts 345°
2026-05-06 12:58 41.71037 -71.40171 7995 ft 243 kts 345°
2026-05-06 12:58 41.72732 -71.40424 7990 ft 247 kts 346°
2026-05-06 12:59 41.74429 -71.40678 7987 ft 248 kts 345°
2026-05-06 12:59 41.76156 -71.40939 7988 ft 249 kts 346°
2026-05-06 12:59 41.77892 -71.41202 7985 ft 250 kts 345°
2026-05-06 12:59 41.79616 -71.41464 7984 ft 251 kts 345°
2026-05-06 13:00 41.81354 -71.41731 7982 ft 251 kts 345°
2026-05-06 13:00 41.83096 -71.41998 7981 ft 252 kts 345°
2026-05-06 13:00 41.84841 -71.42267 7985 ft 252 kts 345°
2026-05-06 13:00 41.86572 -71.42533 7989 ft 252 kts 345°
2026-05-06 13:01 41.88332 -71.42806 7988 ft 252 kts 345°
2026-05-06 13:01 41.90061 -71.43072 7984 ft 253 kts 345°
2026-05-06 13:01 41.91822 -71.43346 7982 ft 253 kts 345°
2026-05-06 13:01 41.93565 -71.43614 7980 ft 254 kts 345°
2026-05-06 13:02 41.95332 -71.43888 7970 ft 254 kts 345°
2026-05-06 13:02 41.97068 -71.44157 7970 ft 254 kts 345°
2026-05-06 13:02 41.98836 -71.44428 7989 ft 253 kts 345°
2026-05-06 13:02 42.00571 -71.44696 8025 ft 251 kts 345°
2026-05-06 13:03 42.02311 -71.44966 8029 ft 252 kts 345°
2026-05-06 13:03 42.04054 -71.45239 8026 ft 252 kts 345°
2026-05-06 13:03 42.05809 -71.45514 7953 ft 256 kts 345°
2026-05-06 13:03 42.07578 -71.45790 7764 ft 258 kts 346°
2026-05-06 13:04 42.09371 -71.46063 7564 ft 255 kts 345°
2026-05-06 13:04 42.11119 -71.46330 7357 ft 251 kts 346°
2026-05-06 13:04 42.12828 -71.46592 7154 ft 247 kts 345°
2026-05-06 13:04 42.14532 -71.46858 6948 ft 244 kts 346°
2026-05-06 13:05 42.16214 -71.47121 6745 ft 242 kts 345°
2026-05-06 13:05 42.17883 -71.47383 6537 ft 241 kts 346°
2026-05-06 13:05 42.19550 -71.47645 6332 ft 240 kts 345°
2026-05-06 13:05 42.21211 -71.47906 6124 ft 239 kts 346°
2026-05-06 13:06 42.22849 -71.48161 5907 ft 238 kts 346°
2026-05-06 13:06 42.24511 -71.48422 5693 ft 238 kts 346°
2026-05-06 13:06 42.26141 -71.48677 5479 ft 239 kts 345°
2026-05-06 13:06 42.27816 -71.48942 5151 ft 241 kts 345°
2026-05-06 13:07 42.29483 -71.49206 4820 ft 242 kts 346°
2026-05-06 13:07 42.31140 -71.49466 4495 ft 242 kts 346°
2026-05-06 13:07 42.32812 -71.49728 4166 ft 242 kts 346°
2026-05-06 13:07 42.34492 -71.49991 3835 ft 242 kts 346°
2026-05-06 13:08 42.36176 -71.50253 3503 ft 242 kts 346°
2026-05-06 13:08 42.37823 -71.50502 3175 ft 236 kts 346°
2026-05-06 13:08 42.39434 -71.50750 2849 ft 231 kts 346°
2026-05-06 13:08 42.41021 -71.50999 2528 ft 227 kts 347°
2026-05-06 13:09 42.42571 -71.51246 2198 ft 224 kts 348°
2026-05-06 13:09 42.44096 -71.51228 2090 ft 216 kts
2026-05-06 13:09 42.45456 -71.50464 2014 ft 208 kts 25°
2026-05-06 13:09 42.46756 -71.49711 1765 ft 195 kts 19°
2026-05-06 13:10 42.47927 -71.49115 1678 ft 163 kts 19°
2026-05-06 13:10 42.48928 -71.48624 1481 ft 150 kts 17°
2026-05-06 13:10 42.49878 -71.48532 1380 ft 126 kts 333°
2026-05-06 13:10 42.50460 -71.49222 1184 ft 105 kts 282°
2026-05-06 13:11 42.50455 -71.50053 1027 ft 85 kts 226°
2026-05-06 13:11 42.49941 -71.50334 958 ft 80 kts 196°
2026-05-06 13:11 42.49404 -71.50537 961 ft 80 kts 197°
2026-05-06 13:11 42.48853 -71.50757 881 ft 84 kts 198°
2026-05-06 13:12 42.48284 -71.50978 722 ft 85 kts 199°
2026-05-06 13:12 42.47737 -71.51222 602 ft 81 kts 198°
2026-05-06 13:12 42.47210 -71.51431 470 ft 76 kts 197°
2026-05-06 13:12 42.46704 -71.51631 363 ft 75 kts 195°
2026-05-06 13:13 42.46223 -71.51823 271 ft 53 kts 198°
2026-05-06 13:13 42.46023 -71.51905 270 ft 5 kts 196°
2026-05-06 13:13 42.45977 -71.51919 270 ft 6 kts 158°
2026-05-06 13:13 42.45985 -71.51863 270 ft 9 kts 19°
2026-05-06 13:14 42.46058 -71.51834 270 ft 11 kts 17°
2026-05-06 13:14 42.46107 -71.51813 270 ft 5 kts 18°
2026-05-06 13:14 42.46121 -71.51792 270 ft 3 kts 114°
2026-05-06 13:14 42.46135 -71.51752 271 ft 3 kts 64°
2026-05-06 13:15 42.46125 -71.51744 271 ft 0 kts 197°